Regional Weather Roundup
Issued by NWS Cleveland, OH

Home | Current Version | Previous Version | Graphics & Text | Print | Product List | Glossary On
Versions: 1 2 3 4 5 6 7 8 9 10 11 12 13 14 15 16 17 18 19 20 21 22 23 24 25 26 27 28 29 30 31 32 33 34 35 36 37 38 39 40 41 42 43 44 45 46 47 48 49 50
000
ASUS41 KCLE 021310
RWRCLE
OHIO REGIONAL WEATHER ROUNDUP
NATIONAL WEATHER SERVICE CLEVELAND, OH
900 AM EDT THU OCT 02 2014

NOTE: "FAIR" INDICATES FEW OR NO CLOUDS BELOW 12,000 FEET WITH NO
SIGNIFICANT WEATHER AND/OR OBSTRUCTIONS TO VISIBILITY.

OHZ001>008-015>018-024>027-034-035-043-044-021400-
   NORTHWEST OHIO

CITY           SKY/WX    TMP DP  RH WIND       PRES   REMARKS
DEFIANCE       PTSUNNY   58  51  78 S6        30.01F
FINDLAY        MOSUNNY   58  52  80 SE9       30.03S
TOLEDO EXPRESS PTSUNNY   55  53  93 SE3       30.02F FOG
TOLEDO EXEC    MOSUNNY   56  52  86 SE8       30.04F
LIMA           MOSUNNY   63  54  72 S9        30.03S
$$

OHZ009>014-019>023-028>033-038-089-021400-
   NORTHEAST OHIO

CITY           SKY/WX    TMP DP  RH WIND       PRES   REMARKS
CLE-HOPKINS    FOG       54  53  97 SE8       30.10R VSB 1/2
CLE-LAKEFRONT  SUNNY     57  53  86 SE9       30.07S FOG
CUY CO. ARPT   MOSUNNY   59  57  94 S12       30.09R HAZE
LORAIN-ELYRIA  PTSUNNY   54  51  90 S5        30.08F FOG
ASHTABULA      FOG       55  55 100 S5        30.11R VSB 3/4
AKRON-CANTON   FOG       52  50  93 S6        30.10R VSB 1/16
WOOSTER        FOG       49  47  93 SE3       30.10R VSB<1/4
MANSFIELD      SUNNY     57  55  93 S8        30.08R
YOUNGSTOWN     FOG       54  54 100 SE7       30.11R VSB 1/16
$$

OHZ042-051>053-060>062-070>072-077>081-021400-
  SOUTHWEST OHIO

CITY           SKY/WX    TMP DP  RH WIND       PRES   REMARKS
CINC-COVINGTON MOSUNNY   64  58  80 S7        30.04R
CINC-LUNKEN    PTSUNNY   59  57  93 CALM      30.06R
HAMILTON       CLOUDY    60  57  89 E5        30.05R
DAYTON         PTSUNNY   60  53  77 SE8       30.05S
WRIGHT-PAT AFB SUNNY     56  53  89 N2        30.05R
DAYTON GENERAL CLOUDY    64  57  78 S9        30.04R
WILMINGTON     MOSUNNY   60  55  83 SE3       30.06R
$$

OHZ036-037-039>041-045>050-054>059-063>069-073>076-082>088-021400-
  CENTRAL AND SOUTHEAST OHIO

CITY           SKY/WX    TMP DP  RH WIND       PRES   REMARKS
COLUMBUS       PTSUNNY   57  53  86 CALM      30.07R
OSU AIRPORT    MOSUNNY   56  53  90 E3        30.07R
BOLTON FIELD   SUNNY     54  54 100 CALM      30.08R FOG
RICKENBACK AFB SUNNY     52  50  95 NE5       30.07S FOG
NEWARK         FOG       48  46  93 CALM      30.09R VSB 1/4
MARION         SUNNY     54  52  93 S6        30.07R FOG
LANCASTER      PTSUNNY   54  51  90 CALM      30.09R FOG
ZANESVILLE     MOSUNNY   49  47  93 CALM      30.10R
NEW PHILLY     FOG       50  49  96 CALM      30.11R VSB<1/4
$$


USA.gov is the U.S. government's official web portal to all federal, state and local government web resources and services.